{"data":{"norad_id":49757,"intl_designator":"2021-115AK","name":"STARLINK-3197","alt_names":[],"object_type":"PAYLOAD","status":"ACTIVE","operator":null,"country":"US","launch_date":"2021-12-02","launch_site_code":"AFETR","launch_vehicle":null,"mission":null,"orbit_class":"UNKNOWN","rcs_meters":null,"size_class":null,"mass_kg":null,"dimensions":null,"purposes":["comms"],"wikipedia_slug":null,"has_3d_model":false,"image_url":null,"decayed_at":null,"tle_current":{"epoch":"2026-05-25T01:19:53.910912Z","epoch_age_seconds":77161,"freshness":"FRESH","line1":"1 49757U 21115AK  26145.05548508 -.00001601  00000+0 -82492-4 0  9993","line2":"2 49757  53.2130 156.3128 0001278  72.8003 287.3128 15.08846748247209","mean_motion":15.08846748,"eccentricity":0.0001278,"inclination_deg":53.213,"raan_deg":156.3128,"arg_perigee_deg":72.8003,"mean_anomaly_deg":287.3128,"bstar":-8.2492e-5,"rev_number":24720,"period_min":95.437127853358,"perigee_km":538.83866062683,"apogee_km":540.60686558228,"semimajor_km":6917.8597631046,"source":"CELESTRAK","updated_at":"2026-05-25T13:38:16.838481Z"}}}